Location: 5810 Zion Rd, Cleves, OH 45002, USA
(39.1922°N, 84.7113°W)
Time: 02:47:45
(UTC-05:00)

Courier 1B Rocket - Pass Details

Date: 15 December 2019
Orbit: 920 x 1202 km, 28.2° (Epoch: 21 January)

Event Time Altitude Azimuth Distance (km) Brightness Sun altitude
Exits shadow 07:09:04 - 254° (WSW) 3,978 7.7 -8.1°
Rises 07:09:15 0° 253° (WSW) 3,920 7.7 -8.1°
Reaches altitude 10° 07:12:22 10° 245° (WSW) 2,916 7.1 -7.5°
Maximum altitude 07:18:33 33° 184° (S) 1,664 6.5 -6.4°
Drops below altitude 10° 07:24:22 10° 123° (ESE) 2,734 9.2 -5.4°
Sets 07:27:12 0° 114° (ESE) 3,643 11.0 -4.9°
